Weather History for Sigonella, Italy

Change the Weather History Date:

Thursday, March 14, 2013

  Actual Average Record
Temperature  
Mean Temperature 52 °F -  
Max Temperature 57 °F 66 °F 69 °F (2008)
Min Temperature 46 °F 45 °F 35 °F (1997)
Degree Days  
Heating Degree Days 12    
Growing Degree Days 2 (Base 50)    
Moisture  
Dew Point 46 °F    
Average Humidity 79    
Maximum Humidity 100    
Minimum Humidity 53    
Precipitation  
Precipitation 0.04 in 0.04 in - ()
Sea Level Pressure  
Sea Level Pressure 29.33 in    
Wind  
Wind Speed 14 mph ()    
Max Wind Speed 37 mph    
Max Gust Speed 41 mph    
Visibility 6.4 miles    
Events Rain    
Averages and records for this station are not official NWS values.
T = Trace of Precipitation, MM = Missing Value Source: Averaged Metar Reports

Daily Weather History Graph

Daily Weather History Graph

Search for Another Location

Airport:

Trip Planner

Search our weather history database for the weather conditions in past years. The results will help you decide how hot, cold, wet, or windy it might be!

Date:

Astronomy

Mar. 14, 2013 Rise Set
Actual Time 6:12 AM CET 6:06 PM CET
Civil Twilight 5:46 AM CET 6:32 PM CET
Nautical Twilight 5:16 AM CET 7:03 PM CET
Astronomical Twilight 4:46 AM CET 7:33 PM CET
Moon 7:20 AM CET (3/14) 9:01 PM CET (3/14)
Length of Visible Light 12h 45m
Length of Day
11h 53m
Waxing Crescent, 7% of the Moon is Illuminated
Mar 14
Waxing Crescent
Mar 19
First Quarter
Mar 27
Full
Apr 3
Last Quarter
Apr 10
New

Hourly Weather History & Observations

Time (CET) Temp. Windchill Dew Point Humidity Pressure Visibility Wind Dir Wind Speed Gust Speed Precip Events Conditions
12:55 AM 53.6 °F - 53.6 °F 100% 29.39 in 5.0 mi West 6.9 mph - N/A Rain Light Rain
1:00 AM 54 °F - 54 °F 100% 29.40 in 5 mi West 6.9 mph - - Rain Light Rain
1:55 AM 53.6 °F - 53.6 °F 100% 29.39 in 5.6 mi WNW 6.9 mph - N/A Rain Light Rain
3:55 AM 53.6 °F - 53.6 °F 100% 29.33 in 5.6 mi WSW 8.1 mph - N/A Rain Light Rain
4:00 AM 54 °F - 54 °F 100% 29.34 in 6 mi WSW 8.1 mph - - Rain Light Rain
4:55 AM 53.6 °F - 53.6 °F 100% 29.33 in 5.6 mi WSW 8.1 mph - N/A Rain Light Rain
5:55 AM 53.6 °F - 51.8 °F 94% 29.30 in 6.2 mi WNW 11.5 mph - N/A   Mostly Cloudy
6:55 AM 48.2 °F - 48.2 °F 100% 29.30 in 6.2 mi West 11.5 mph - N/A   Mostly Cloudy
7:00 AM 49 °F - 47 °F 92% 29.32 in 6 mi West 11.5 mph - -   Partly Cloudy
7:55 AM 48.2 °F - 46.4 °F 93% 29.30 in 6.2 mi WSW 15.0 mph - N/A   Mostly Cloudy
8:55 AM 53.6 °F - 46.4 °F 77% 29.30 in 6.2 mi WSW 15.0 mph - N/A   Scattered Clouds
9:55 AM 55.4 °F - 42.8 °F 63% 29.27 in 6.2 mi WSW 23.0 mph 34.5 mph N/A   Scattered Clouds
10:00 AM 55 °F - 44 °F 55% 29.28 in 8 mi WSW 23.0 mph - -   Partly Cloudy
10:55 AM 55.4 °F - 44.6 °F 67% 29.27 in 6.2 mi West 20.7 mph 32.2 mph N/A   Scattered Clouds
11:06 AM 50.0 °F - 46.4 °F 87% 29.27 in 2.5 mi West 36.8 mph - N/A Rain Light Rain Showers
11:35 AM 50.0 °F - 50.0 °F 100% 29.27 in 6.2 mi West 20.7 mph - N/A Rain Light Rain
11:55 AM 50.0 °F - 46.4 °F 87% 29.27 in 6.2 mi West 19.6 mph - N/A   Scattered Clouds
12:55 PM 53.6 °F - 44.6 °F 72% 29.24 in 6.2 mi West 28.8 mph 41.4 mph N/A   Scattered Clouds
1:00 PM 54 °F - 45 °F 62% 29.26 in 9 mi West 28.8 mph - -   Partly Cloudy
1:55 PM 57.2 °F - 42.8 °F 59% 29.24 in 6.2 mi West 23.0 mph - N/A   Scattered Clouds
2:55 PM 57.2 °F - 44.6 °F 63% 29.27 in 6.2 mi West 23.0 mph - N/A   Scattered Clouds
3:55 PM 53.6 °F - 42.8 °F 67% 29.27 in 6.2 mi West 18.4 mph - N/A   Scattered Clouds
4:00 PM 54 °F - 43 °F 57% 29.29 in 9 mi West 18.4 mph - -   Partly Cloudy
4:55 PM 53.6 °F - 44.6 °F 72% 29.30 in 6.2 mi West 18.4 mph - N/A   Scattered Clouds
5:55 PM 51.8 °F - 42.8 °F 71% 29.33 in 6.2 mi West 24.2 mph - N/A   Scattered Clouds
6:55 PM 51.8 °F - 41.0 °F 67% 29.36 in 6.2 mi WNW 24.2 mph - N/A   Scattered Clouds
7:00 PM 52 °F - 42 °F 58% 29.37 in 11 mi WNW 24.2 mph - -   Partly Cloudy
7:55 PM 50.0 °F - 42.8 °F 76% 29.39 in 6.2 mi West 20.7 mph - N/A   Scattered Clouds
8:55 PM 48.2 °F - 46.4 °F 93% 29.42 in 6.2 mi West 11.5 mph - N/A   Scattered Clouds
10:00 PM 49 °F - 37 °F 53% 29.48 in 9 mi West 20.7 mph - -   Scattered Clouds
10:55 PM 48.2 °F - 33.8 °F 58% 29.50 in 6.2 mi West 23.0 mph - N/A   Scattered Clouds
11:55 PM 46.4 °F 39.8 °F 37.4 °F 71% 29.50 in 6.2 mi West 16.1 mph - N/A   Partly Cloudy